Location: LDNL
(36.4545°S, 141.6685°E)
Time: 11:36:04
(UTC+10:00)

Tiros 1 despin weight - Pass Details

Date: 10 August 2022
Orbit: 590 x 639 km, 48.2° (Epoch: 23 September)

Event Time Altitude Azimuth Distance (km) Brightness Sun altitude
Rises 09:07:33 0° 251° (WSW) 2,957 ? 17.9°
Reaches altitude 10° 09:10:39 10° 271° (W) 2,036 ? 18.4°
Maximum altitude 09:13:33 16° 310° (NW) 1,641 ? 18.9°
Drops below altitude 10° 09:16:26 10° 349° (NNW) 2,009 ? 19.4°
Sets 09:19:28 0° 9° (N) 2,898 ? 19.8°
